Simultaneous Nadir Overpasses (SNOs) Predictions

Prediction of SNOs between GOES-15 and METOP-A Satellite Orbit:

Table of predicted SNOs for the next 14.0 days since TLE Epoch: 3/14/2014
Index Date Time (GOES-15) GOES-15 Lat,Lon METOP-A Lat,Lon Distance(km) Time Diff (sec)
1 03/14/2014 18:26:53 0.06,-134.53 -0.04,-134.22 36.05 80
2 03/17/2014 06:22:31 -0.06,-134.36 0.08,-133.81 62.67 80
3 03/18/2014 18:41:20 0.05,-134.32 0.97,-138.36 460.89 80
4 03/19/2014 18:23:20 0.05,-134.27 -0.14,-133.37 102.42 80
5 03/21/2014 06:42:18 -0.05,-134.13 -0.92,-137.95 435.74 80
6 03/22/2014 06:18:57 -0.05,-134.07 0.20,-132.96 126.83 80
7 03/23/2014 18:37:47 0.04,-134.02 0.85,-137.51 398.60 80
8 03/24/2014 18:19:46 0.04,-133.95 -0.27,-132.51 163.74 80
9 03/26/2014 06:38:45 -0.04,-133.81 -0.77,-137.10 375.44 80
10 03/27/2014 06:15:24 -0.04,-133.74 0.35,-132.11 186.57 80




NCC Satellite Simultaneous Nadir Overpasses (SNOs) Prediction Service
